FLOCK 2K-6 (42897 NORAD) Tracking and Keplerian Element Data

This shows tracking and keplerian element data for the satellite.

Feedback or suggestion? Click here.




ElementValue
Catalog42897
NameFLOCK 2K-6
Epoch Orbit21286
Epoch Day119.64208003
Epoch Year2021
RAAN335.7556
Inclination96.8547
Eccentricity0.0006763
Argument of Perigee251.0456
Mean Anonmoly109.0061
Mean Motion15.45388792
Decay Rate9.69E-05
L11 42897U 17042CA 21119.64208003 .00009690 00000-0 20436-3 0 9993
L22 42897 96.8547 335.7556 0006763 251.0456 109.0061 15.45388792212868

Live tracking and technical data element details for FLOCK 2K-6 (NORAD 42897). FLOCK 2K-6 can be tracked NOW for your location showing map with azimuth and elevation plus other details from your city location.

Track the satellite on the map from your city or location and see movement details for azimuth, elevation, latitude, longitude, range, height, and movement on the map or in text.







IsCatalogInMostPopularTable: catalog: 42897, numindb: 617
Update: records affected: 1



GetName: 42897 FLOCK 2K-6

Hit Count: updated at: Sun, 26 Sep 2021 00:57:08 GMT